contact:dominique.lefevre@mio.osupytheas.fr, maurice.libes@osupytheas.fr, didier.mallarino@osupytheas.fr
Project:EMSO http://www.emso-fr.org/EMSO-France
Depth: 2436.0 m
Title:EMSO Ligure Ouest : Data MII capteur MICROCAT
DateTime_Computer,Latitude,Longitude,Temperature,Conductivity,Pressure,DateTime_Instrument
DateTime_Computer,Latitude,Longitude,degC,S m-1,dbar,DateTime_Instrument
2022-03-23T00:02:13Z,42.805,6.029,13.3023,4.60059,2470.46,2022-3-23T02:03:49Z
2022-03-23T00:05:16Z,42.805,6.029,13.3019,4.60047,2470.483,2022-3-23T02:06:53Z
2022-03-23T00:08:19Z,42.805,6.029,13.3020,4.60048,2470.52,2022-3-23T02:09:56Z
2022-03-23T00:11:22Z,42.805,6.029,13.3026,4.60047,2470.493,2022-3-23T02:12:59Z
2022-03-23T00:14:25Z,42.805,6.029,13.3029,4.60044,2470.507,2022-3-23T02:16:02Z
2022-03-23T00:17:29Z,42.805,6.029,13.3024,4.60051,2470.474,2022-3-23T02:19:05Z
2022-03-23T00:20:32Z,42.805,6.029,13.3030,4.60061,2470.497,2022-3-23T02:22:08Z
2022-03-23T00:23:35Z,42.805,6.029,13.3020,4.60052,2470.474,2022-3-23T02:25:11Z
2022-03-23T00:26:38Z,42.805,6.029,13.3031,4.60052,2470.474,2022-3-23T02:28:14Z
2022-03-23T00:29:41Z,42.805,6.029,13.3024,4.60052,2470.497,2022-3-23T02:31:18Z
2022-03-23T00:32:44Z,42.805,6.029,13.3027,4.60054,2470.46,2022-3-23T02:34:21Z
2022-03-23T00:35:47Z,42.805,6.029,13.3024,4.60055,2470.46,2022-3-23T02:37:24Z
2022-03-23T00:38:50Z,42.805,6.029,13.3039,4.60055,2470.497,2022-3-23T02:40:27Z
2022-03-23T00:41:53Z,42.805,6.029,13.3029,4.60054,2470.474,2022-3-23T02:43:30Z
2022-03-23T00:44:57Z,42.805,6.029,13.3021,4.60049,2470.46,2022-3-23T02:46:33Z
2022-03-23T00:48:00Z,42.805,6.029,13.3018,4.60062,2470.437,2022-3-23T02:49:36Z
2022-03-23T00:51:03Z,42.805,6.029,13.3026,4.60049,2470.437,2022-3-23T02:52:39Z
2022-03-23T00:54:06Z,42.805,6.029,13.3019,4.60053,2470.497,2022-3-23T02:55:43Z
2022-03-23T00:57:09Z,42.805,6.029,13.3025,4.60047,2470.437,2022-3-23T02:58:46Z
2022-03-23T01:00:12Z,42.805,6.029,13.3027,4.60054,2470.437,2022-3-23T03:01:49Z
2022-03-23T01:03:15Z,42.805,6.029,13.3024,4.60052,2470.437,2022-3-23T03:04:52Z
2022-03-23T01:06:18Z,42.805,6.029,13.3038,4.60055,2470.46,2022-3-23T03:07:55Z
2022-03-23T01:09:22Z,42.805,6.029,13.3026,4.60050,2470.437,2022-3-23T03:10:58Z
2022-03-23T01:12:25Z,42.805,6.029,13.3023,4.60046,2470.45,2022-3-23T03:14:01Z
2022-03-23T01:15:28Z,42.805,6.029,13.3021,4.60058,2470.427,2022-3-23T03:17:04Z
2022-03-23T01:18:31Z,42.805,6.029,13.3019,4.60047,2470.45,2022-3-23T03:20:07Z
2022-03-23T01:21:34Z,42.805,6.029,13.3018,4.60052,2470.474,2022-3-23T03:23:11Z
2022-03-23T01:24:37Z,42.805,6.029,13.3024,4.60049,2470.45,2022-3-23T03:26:14Z
2022-03-23T01:27:40Z,42.805,6.029,13.3026,4.60043,2470.437,2022-3-23T03:29:17Z
2022-03-23T01:30:43Z,42.805,6.029,13.3014,4.60048,2470.437,2022-3-23T03:32:20Z
2022-03-23T01:33:47Z,42.805,6.029,13.3024,4.60049,2470.45,2022-3-23T03:35:23Z
2022-03-23T01:36:50Z,42.805,6.029,13.3024,4.60050,2470.399,2022-3-23T03:38:26Z
2022-03-23T01:39:53Z,42.805,6.029,13.3019,4.60054,2470.45,2022-3-23T03:41:29Z
2022-03-23T01:42:56Z,42.805,6.029,13.3029,4.60054,2470.46,2022-3-23T03:44:32Z
2022-03-23T01:45:59Z,42.805,6.029,13.3026,4.60055,2470.45,2022-3-23T03:47:36Z
2022-03-23T01:49:02Z,42.805,6.029,13.3023,4.60057,2470.413,2022-3-23T03:50:39Z
2022-03-23T01:52:05Z,42.805,6.029,13.3025,4.60046,2470.39,2022-3-23T03:53:42Z
2022-03-23T01:55:08Z,42.805,6.029,13.3022,4.60052,2470.413,2022-3-23T03:56:45Z
2022-03-23T01:58:12Z,42.805,6.029,13.3026,4.60066,2470.413,2022-3-23T03:59:48Z
2022-03-23T02:01:15Z,42.805,6.029,13.3036,4.60061,2470.427,2022-3-23T04:02:51Z
2022-03-23T02:04:18Z,42.805,6.029,13.3023,4.60053,2470.413,2022-3-23T04:05:54Z
2022-03-23T02:07:21Z,42.805,6.029,13.3029,4.60067,2470.404,2022-3-23T04:08:57Z
2022-03-23T02:10:24Z,42.805,6.029,13.3030,4.60094,2470.404,2022-3-23T04:12:00Z
2022-03-23T02:13:27Z,42.805,6.029,13.3035,4.60062,2470.437,2022-3-23T04:15:04Z
2022-03-23T02:16:30Z,42.805,6.029,13.3032,4.60049,2470.427,2022-3-23T04:18:07Z
2022-03-23T02:19:33Z,42.805,6.029,13.3039,4.60067,2470.39,2022-3-23T04:21:10Z
2022-03-23T02:22:36Z,42.805,6.029,13.3055,4.60057,2470.404,2022-3-23T04:24:13Z
2022-03-23T02:25:40Z,42.805,6.029,13.3024,4.60049,2470.39,2022-3-23T04:27:16Z
2022-03-23T02:28:43Z,42.805,6.029,13.3026,4.60054,2470.39,2022-3-23T04:30:19Z
2022-03-23T02:31:46Z,42.805,6.029,13.3069,4.60062,2470.404,2022-3-23T04:33:22Z
2022-03-23T02:34:49Z,42.805,6.029,13.3025,4.60071,2470.404,2022-3-23T04:36:25Z
2022-03-23T02:37:52Z,42.805,6.029,13.3043,4.60064,2470.404,2022-3-23T04:39:29Z
2022-03-23T02:40:55Z,42.805,6.029,13.3030,4.60047,2470.366,2022-3-23T04:42:32Z
2022-03-23T02:43:58Z,42.805,6.029,13.3028,4.60061,2470.366,2022-3-23T04:45:35Z
2022-03-23T02:47:01Z,42.805,6.029,13.3048,4.60057,2470.38,2022-3-23T04:48:38Z
2022-03-23T02:50:05Z,42.805,6.029,13.3030,4.60051,2470.366,2022-3-23T04:51:41Z
2022-03-23T02:53:08Z,42.805,6.029,13.3027,4.60067,2470.39,2022-3-23T04:54:44Z
2022-03-23T02:56:11Z,42.805,6.029,13.3035,4.60058,2470.39,2022-3-23T04:57:47Z
2022-03-23T02:59:14Z,42.805,6.029,13.3028,4.60052,2470.39,2022-3-23T05:00:50Z
2022-03-23T03:02:17Z,42.805,6.029,13.3056,4.60069,2470.404,2022-3-23T05:03:54Z
2022-03-23T03:05:20Z,42.805,6.029,13.3033,4.60057,2470.404,2022-3-23T05:06:57Z
2022-03-23T03:08:23Z,42.805,6.029,13.3067,4.60067,2470.427,2022-3-23T05:10:00Z
2022-03-23T03:11:26Z,42.805,6.029,13.3050,4.60060,2470.39,2022-3-23T05:13:03Z
2022-03-23T03:14:30Z,42.805,6.029,13.3041,4.60063,2470.38,2022-3-23T05:16:06Z
2022-03-23T03:17:33Z,42.805,6.029,13.3060,4.60064,2470.39,2022-3-23T05:19:09Z
2022-03-23T03:20:36Z,42.805,6.029,13.3041,4.60074,2470.343,2022-3-23T05:22:12Z
2022-03-23T03:23:39Z,42.805,6.029,13.3043,4.60068,2470.38,2022-3-23T05:25:15Z
2022-03-23T03:26:42Z,42.805,6.029,13.3051,4.60059,2470.38,2022-3-23T05:28:19Z
2022-03-23T03:29:45Z,42.805,6.029,13.3034,4.60060,2470.38,2022-3-23T05:31:22Z
2022-03-23T03:32:48Z,42.805,6.029,13.3039,4.60062,2470.38,2022-3-23T05:34:25Z
2022-03-23T03:35:51Z,42.805,6.029,13.3037,4.60067,2470.357,2022-3-23T05:37:28Z
2022-03-23T03:38:55Z,42.805,6.029,13.3031,4.60081,2470.39,2022-3-23T05:40:31Z
2022-03-23T03:41:58Z,42.805,6.029,13.3037,4.60064,2470.357,2022-3-23T05:43:34Z
2022-03-23T03:45:01Z,42.805,6.029,13.3043,4.60070,2470.38,2022-3-23T05:46:37Z
2022-03-23T03:48:04Z,42.805,6.029,13.3057,4.60055,2470.366,2022-3-23T05:49:40Z
2022-03-23T03:51:07Z,42.805,6.029,13.3031,4.60064,2470.39,2022-3-23T05:52:43Z
2022-03-23T03:54:10Z,42.805,6.029,13.3035,4.60058,2470.366,2022-3-23T05:55:47Z
2022-03-23T03:57:13Z,42.805,6.029,13.3034,4.60070,2470.38,2022-3-23T05:58:50Z
2022-03-23T04:00:16Z,42.805,6.029,13.3033,4.60061,2470.38,2022-3-23T06:01:53Z
2022-03-23T04:03:19Z,42.805,6.029,13.3039,4.60058,2470.343,2022-3-23T06:04:56Z
2022-03-23T04:06:23Z,42.805,6.029,13.3038,4.60067,2470.39,2022-3-23T06:07:59Z
2022-03-23T04:09:26Z,42.805,6.029,13.3041,4.60069,2470.343,2022-3-23T06:11:02Z
2022-03-23T04:12:29Z,42.805,6.029,13.3052,4.60069,2470.366,2022-3-23T06:14:05Z
2022-03-23T04:15:32Z,42.805,6.029,13.3046,4.60077,2470.32,2022-3-23T06:17:08Z
2022-03-23T04:18:35Z,42.805,6.029,13.3039,4.60072,2470.32,2022-3-23T06:20:12Z
2022-03-23T04:21:38Z,42.805,6.029,13.3047,4.60061,2470.38,2022-3-23T06:23:15Z
2022-03-23T04:24:41Z,42.805,6.029,13.3037,4.60054,2470.366,2022-3-23T06:26:18Z
2022-03-23T04:27:44Z,42.805,6.029,13.3034,4.60061,2470.343,2022-3-23T06:29:21Z
2022-03-23T04:30:48Z,42.805,6.029,13.3038,4.60067,2470.366,2022-3-23T06:32:24Z
2022-03-23T04:33:51Z,42.805,6.029,13.3030,4.60059,2470.343,2022-3-23T06:35:27Z
2022-03-23T04:36:54Z,42.805,6.029,13.3037,4.60062,2470.32,2022-3-23T06:38:30Z
2022-03-23T04:39:57Z,42.805,6.029,13.3044,4.60060,2470.343,2022-3-23T06:41:33Z
2022-03-23T04:43:00Z,42.805,6.029,13.3043,4.60072,2470.343,2022-3-23T06:44:36Z
2022-03-23T04:46:03Z,42.805,6.029,13.3028,4.60064,2470.38,2022-3-23T06:47:40Z
2022-03-23T04:49:06Z,42.805,6.029,13.3032,4.60055,2470.366,2022-3-23T06:50:43Z
2022-03-23T04:52:09Z,42.805,6.029,13.3027,4.60052,2470.357,2022-3-23T06:53:46Z
2022-03-23T04:55:12Z,42.805,6.029,13.3033,4.60064,2470.38,2022-3-23T06:56:49Z
2022-03-23T04:58:16Z,42.805,6.029,13.3025,4.60063,2470.343,2022-3-23T06:59:52Z
2022-03-23T05:01:19Z,42.805,6.029,13.3055,4.60074,2470.357,2022-3-23T07:02:55Z
2022-03-23T05:04:22Z,42.805,6.029,13.3035,4.60057,2470.38,2022-3-23T07:05:58Z
2022-03-23T05:07:25Z,42.805,6.029,13.3035,4.60059,2470.38,2022-3-23T07:09:01Z
2022-03-23T05:10:28Z,42.805,6.029,13.3036,4.60051,2470.38,2022-3-23T07:12:05Z
2022-03-23T05:13:31Z,42.805,6.029,13.3031,4.60055,2470.38,2022-3-23T07:15:08Z
2022-03-23T05:16:34Z,42.805,6.029,13.3031,4.60066,2470.343,2022-3-23T07:18:11Z
2022-03-23T05:19:37Z,42.805,6.029,13.3031,4.60057,2470.404,2022-3-23T07:21:14Z
2022-03-23T05:22:41Z,42.805,6.029,13.3034,4.60058,2470.366,2022-3-23T07:24:17Z
2022-03-23T05:25:44Z,42.805,6.029,13.3034,4.60069,2470.343,2022-3-23T07:27:20Z
2022-03-23T05:28:47Z,42.805,6.029,13.3034,4.60070,2470.366,2022-3-23T07:30:23Z
2022-03-23T05:31:50Z,42.805,6.029,13.3036,4.60068,2470.343,2022-3-23T07:33:26Z
2022-03-23T05:34:53Z,42.805,6.029,13.3041,4.60059,2470.38,2022-3-23T07:36:30Z
2022-03-23T05:37:56Z,42.805,6.029,13.3031,4.60051,2470.334,2022-3-23T07:39:33Z
2022-03-23T05:40:59Z,42.805,6.029,13.3038,4.60067,2470.357,2022-3-23T07:42:36Z
2022-03-23T05:44:02Z,42.805,6.029,13.3046,4.60062,2470.38,2022-3-23T07:45:39Z
2022-03-23T05:47:06Z,42.805,6.029,13.3025,4.60052,2470.357,2022-3-23T07:48:42Z
2022-03-23T05:50:09Z,42.805,6.029,13.3021,4.60062,2470.357,2022-3-23T07:51:45Z
2022-03-23T05:53:12Z,42.805,6.029,13.3046,4.60066,2470.404,2022-3-23T07:54:48Z
2022-03-23T05:56:15Z,42.805,6.029,13.3038,4.60064,2470.38,2022-3-23T07:57:51Z
2022-03-23T05:59:18Z,42.805,6.029,13.3019,4.60049,2470.343,2022-3-23T08:00:55Z
2022-03-23T06:02:21Z,42.805,6.029,13.3016,4.60049,2470.38,2022-3-23T08:03:58Z
2022-03-23T06:05:24Z,42.805,6.029,13.3027,4.60059,2470.357,2022-3-23T08:07:01Z
2022-03-23T06:08:27Z,42.805,6.029,13.3027,4.60055,2470.38,2022-3-23T08:10:04Z
2022-03-23T06:11:30Z,42.805,6.029,13.3049,4.60059,2470.343,2022-3-23T08:13:07Z
2022-03-23T06:14:34Z,42.805,6.029,13.3051,4.60058,2470.343,2022-3-23T08:16:10Z
2022-03-23T06:17:37Z,42.805,6.029,13.3028,4.60053,2470.334,2022-3-23T08:19:13Z
2022-03-23T06:20:40Z,42.805,6.029,13.3021,4.60059,2470.32,2022-3-23T08:22:16Z
2022-03-23T06:23:43Z,42.805,6.029,13.3032,4.60059,2470.366,2022-3-23T08:25:19Z
2022-03-23T06:26:46Z,42.805,6.029,13.3026,4.60053,2470.39,2022-3-23T08:28:23Z
2022-03-23T06:29:49Z,42.805,6.029,13.3039,4.60063,2470.38,2022-3-23T08:31:26Z
2022-03-23T06:32:52Z,42.805,6.029,13.3026,4.60054,2470.343,2022-3-23T08:34:29Z
2022-03-23T06:35:55Z,42.805,6.029,13.3031,4.60052,2470.366,2022-3-23T08:37:32Z
2022-03-23T06:38:59Z,42.805,6.029,13.3030,4.60056,2470.366,2022-3-23T08:40:35Z
2022-03-23T06:42:02Z,42.805,6.029,13.3031,4.60061,2470.404,2022-3-23T08:43:38Z
2022-03-23T06:45:05Z,42.805,6.029,13.3039,4.60057,2470.366,2022-3-23T08:46:41Z
2022-03-23T06:48:08Z,42.805,6.029,13.3032,4.60054,2470.38,2022-3-23T08:49:44Z
2022-03-23T06:51:11Z,42.805,6.029,13.3035,4.60061,2470.39,2022-3-23T08:52:48Z
2022-03-23T06:54:14Z,42.805,6.029,13.3037,4.60063,2470.39,2022-3-23T08:55:51Z
2022-03-23T06:57:17Z,42.805,6.029,13.3055,4.60061,2470.38,2022-3-23T08:58:54Z
2022-03-23T07:00:20Z,42.805,6.029,13.3042,4.60061,2470.404,2022-3-23T09:01:57Z
2022-03-23T07:03:24Z,42.805,6.029,13.3041,4.60058,2470.38,2022-3-23T09:05:00Z
2022-03-23T07:06:27Z,42.805,6.029,13.3049,4.60052,2470.366,2022-3-23T09:08:03Z
2022-03-23T07:09:30Z,42.805,6.029,13.3033,4.60061,2470.413,2022-3-23T09:11:06Z
2022-03-23T07:12:33Z,42.805,6.029,13.3033,4.60046,2470.39,2022-3-23T09:14:09Z
2022-03-23T07:15:36Z,42.805,6.029,13.3026,4.60059,2470.39,2022-3-23T09:17:13Z
2022-03-23T07:18:39Z,42.805,6.029,13.3037,4.60057,2470.366,2022-3-23T09:20:16Z
2022-03-23T07:21:42Z,42.805,6.029,13.3031,4.60055,2470.38,2022-3-23T09:23:19Z
2022-03-23T07:24:45Z,42.805,6.029,13.3029,4.60058,2470.413,2022-3-23T09:26:22Z
2022-03-23T07:27:48Z,42.805,6.029,13.3048,4.60049,2470.404,2022-3-23T09:29:25Z
2022-03-23T07:30:52Z,42.805,6.029,13.3024,4.60064,2470.413,2022-3-23T09:32:28Z
2022-03-23T07:33:55Z,42.805,6.029,13.3040,4.60049,2470.366,2022-3-23T09:35:31Z
2022-03-23T07:36:58Z,42.805,6.029,13.3030,4.60054,2470.427,2022-3-23T09:38:34Z
2022-03-23T07:40:01Z,42.805,6.029,13.3036,4.60062,2470.39,2022-3-23T09:41:37Z
2022-03-23T07:43:04Z,42.805,6.029,13.3034,4.60056,2470.413,2022-3-23T09:44:41Z
2022-03-23T07:46:07Z,42.805,6.029,13.3023,4.60059,2470.39,2022-3-23T09:47:44Z
2022-03-23T07:49:10Z,42.805,6.029,13.3034,4.60061,2470.376,2022-3-23T09:50:47Z
2022-03-23T07:52:13Z,42.805,6.029,13.3020,4.60059,2470.427,2022-3-23T09:53:50Z
2022-03-23T07:55:17Z,42.805,6.029,13.3034,4.60067,2470.427,2022-3-23T09:56:53Z
2022-03-23T07:58:20Z,42.805,6.029,13.3027,4.60069,2470.45,2022-3-23T09:59:56Z
2022-03-23T08:01:23Z,42.805,6.029,13.3045,4.60046,2470.427,2022-3-23T10:02:59Z
2022-03-23T08:04:26Z,42.805,6.029,13.3026,4.60065,2470.45,2022-3-23T10:06:02Z
2022-03-23T08:07:29Z,42.805,6.029,13.3041,4.60067,2470.437,2022-3-23T10:09:06Z
2022-03-23T08:10:32Z,42.805,6.029,13.3039,4.60073,2470.39,2022-3-23T10:12:09Z
2022-03-23T08:13:35Z,42.805,6.029,13.3042,4.60088,2470.45,2022-3-23T10:15:12Z
2022-03-23T08:16:38Z,42.805,6.029,13.3045,4.60068,2470.46,2022-3-23T10:18:15Z
2022-03-23T08:19:42Z,42.805,6.029,13.3021,4.60050,2470.413,2022-3-23T10:21:18Z
2022-03-23T08:22:45Z,42.805,6.029,13.3024,4.60081,2470.437,2022-3-23T10:24:21Z
2022-03-23T08:25:48Z,42.805,6.029,13.3020,4.60062,2470.474,2022-3-23T10:27:24Z
2022-03-23T08:28:51Z,42.805,6.029,13.3019,4.60049,2470.437,2022-3-23T10:30:27Z
2022-03-23T08:31:54Z,42.805,6.029,13.3019,4.60095,2470.46,2022-3-23T10:33:31Z
2022-03-23T08:34:57Z,42.805,6.029,13.3028,4.60135,2470.437,2022-3-23T10:36:34Z
2022-03-23T08:38:00Z,42.805,6.029,13.3025,4.60079,2470.46,2022-3-23T10:39:37Z
2022-03-23T08:41:03Z,42.805,6.029,13.3030,4.60057,2470.46,2022-3-23T10:42:40Z
2022-03-23T08:44:07Z,42.805,6.029,13.3038,4.60053,2470.46,2022-3-23T10:45:43Z
2022-03-23T08:47:10Z,42.805,6.029,13.3039,4.60087,2470.46,2022-3-23T10:48:46Z
2022-03-23T08:50:13Z,42.805,6.029,13.3048,4.60065,2470.46,2022-3-23T10:51:49Z
2022-03-23T08:53:16Z,42.805,6.029,13.3021,4.60084,2470.497,2022-3-23T10:54:53Z
2022-03-23T08:56:19Z,42.805,6.029,13.3041,4.60089,2470.497,2022-3-23T10:57:56Z
2022-03-23T08:59:22Z,42.805,6.029,13.3035,4.60059,2470.483,2022-3-23T11:00:59Z
2022-03-23T09:02:25Z,42.805,6.029,13.3019,4.60069,2470.46,2022-3-23T11:04:02Z
2022-03-23T09:05:28Z,42.805,6.029,13.3056,4.60077,2470.45,2022-3-23T11:07:05Z
2022-03-23T09:08:32Z,42.805,6.029,13.3037,4.60090,2470.437,2022-3-23T11:10:08Z
2022-03-23T09:11:35Z,42.805,6.029,13.3050,4.60068,2470.497,2022-3-23T11:13:11Z
2022-03-23T09:14:38Z,42.805,6.029,13.3034,4.60077,2470.483,2022-3-23T11:16:14Z
2022-03-23T09:17:41Z,42.805,6.029,13.3048,4.60104,2470.437,2022-3-23T11:19:17Z
2022-03-23T09:20:44Z,42.805,6.029,13.3024,4.60092,2470.483,2022-3-23T11:22:21Z
2022-03-23T09:23:47Z,42.805,6.029,13.3043,4.60085,2470.483,2022-3-23T11:25:24Z
2022-03-23T09:26:50Z,42.805,6.029,13.3050,4.60106,2470.507,2022-3-23T11:28:27Z
2022-03-23T09:29:53Z,42.805,6.029,13.3041,4.60074,2470.52,2022-3-23T11:31:30Z
